Flag for Canada Weather past 2 weeks in Red Deer, Alberta, Canada

Now
39 °F

Passing clouds.


Feels Like: 36 °F
Forecast: 42 / 55 °F
Wind: 5 mph from Southwest

Location: Red Deer

Current Time: Oct 21, 2014 at 8:04:13 AM

Latest Report: Oct 21, 2014 at 7:00 AM


Visibility: 15 mi

Pressure: 29.66 "Hg

Humidity: 81%

Dew point: 34 °F

Location of Red DeerLocation

Historic Weather in Red Deer — Graph

°F

Red Deer temperature yesterday

Maximum temperature yesterday: 72 °F (at 2:00 PM)
Minimum temperature yesterday: 32 °F (at 5:00 AM)
Average temperature yesterday: 52 °F

Past Weeks' High & Low Weather Summary

 TemperatureHumidityPressure
High72 °F (Oct 10, 4:00 PM)100% (Oct 10, 6:00 AM)30.22 "Hg (Oct 10, 6:00 AM)
Low27 °F (Oct 13, 8:00 AM)23% (Oct 18, 2:00 PM)29.51 "Hg (Oct 14, 9:00 AM)
Average48 °F63%29.86 "Hg
* Reported Oct 6 7:00 AM — Oct 21 7:00 AM, Red Deer, Weather by CustomWeather, © 2014

Note: Actual official high and low records may vary slightly from our data, if they occured in-between our weather recording intervals... More about our weather records

Advertising

Red Deer weather history for previous 24 hours

 ConditionsComfort  
Time TempWeatherWind HumidityBarometerVisibility
7:00 AM
Oct 21
39 °FPassing clouds.5 mph81%29.66 "Hg15 mi
6:00 AM41 °FMostly cloudy.2 mph81%29.65 "Hg15 mi
5:00 AM46 °FPartly cloudy.7 mph66%29.62 "Hg15 mi
4:00 AM43 °FPassing clouds.8 mph76%29.63 "Hg15 mi
3:00 AM43 °FOvercast.8 mph71%29.61 "Hg15 mi
2:00 AM48 °FOvercast.No wind62%29.59 "Hg15 mi
1:00 AM54 °FOvercast.7 mph51%29.56 "Hg15 mi
12:00 AM52 °FPassing clouds.5 mph50%29.56 "Hg15 mi
11:00 PM
Oct 20
54 °FPassing clouds.7 mph47%29.55 "Hg15 mi
10:00 PM54 °FPassing clouds.6 mph47%29.57 "Hg15 mi
9:00 PM54 °FPassing clouds.6 mph47%29.58 "Hg15 mi
8:00 PM55 °FPassing clouds.8 mph44%29.59 "Hg15 mi
7:00 PM61 °FPartly sunny.7 mph36%29.59 "Hg15 mi
6:00 PM66 °FPartly sunny.5 mph32%29.58 "Hg15 mi
5:00 PM72 °FPartly sunny.8 mph27%29.58 "Hg15 mi
4:00 PM72 °FPartly sunny.15 mph23%29.59 "Hg15 mi
3:00 PM72 °FMild.8 mph36%29.59 "HgN/A
2:00 PM72 °FMild.8 mph38%29.58 "HgN/A
1:00 PM70 °FPartly sunny.14 mph29%29.61 "Hg15 mi
12:00 PM68 °FPartly sunny.20 mph30%29.62 "Hg15 mi
11:00 AM61 °FPartly sunny.12 mph42%29.65 "Hg15 mi
10:00 AM48 °FPartly sunny.7 mph66%29.67 "Hg15 mi
9:00 AM41 °FPassing clouds.6 mph70%29.69 "Hg15 mi
8:00 AM36 °FPassing clouds.7 mph81%29.69 "Hg15 mi
Weather by CustomWeather, © 2014

See weather overviewHow to use our weather pages